Location: Theydon Bois
(51.6750°N, 0.1050°E)
Time: 11:28:18
(UTC+00:00)

Envisat - Pass Details

Date: 15 December 2019
Orbit: 764 x 766 km, 98.1° (Epoch: 18 January)

Event Time Altitude Azimuth Distance (km) Brightness Sun altitude
Rises 06:31:35 0° 17° (NNE) 3,246 6.2 -12.6°
Reaches altitude 10° 06:33:58 10° 23° (NNE) 2,315 5.5 -12.2°
Maximum altitude 06:38:56 51° 99° (E) 961 4.0 -11.5°
Drops below altitude 10° 06:43:52 10° 176° (S) 2,297 5.9 -10.8°
Sets 06:46:14 0° 181° (S) 3,219 6.6 -10.5°
